Dubai, UAE

6:17 PM GST on February 11, 2016 (GMT +0400)
Dubai

Weather History for 41194 - December, 2013

Change the Weather History Date:

Thursday, December 19, 2013

  Actual Average Record
Temperature  
Mean Temperature 74 °F -  
Max Temperature 80 °F 74 °F - ()
Min Temperature 69 °F 59 °F - ()
Cooling Degree Days 10    
Growing Degree Days 24 (Base 50)    
Moisture  
Dew Point 51 °F    
Average Humidity 41    
Maximum Humidity 53    
Minimum Humidity 17    
Precipitation  
Precipitation 0.00 in 0.02 in - ()
Sea Level Pressure  
Sea Level Pressure 30.05 in    
Wind  
Wind Speed 5 mph ()    
Max Wind Speed 12 mph    
Max Gust Speed -    
Visibility 6.0 miles    
Events      
T = Trace of Precipitation, MM = Missing Value Source: Averaged Metar Reports

Daily Weather History Graph

Daily Weather History Graph

Search for Another Location

Airport or City:

Trip Planner

Search our weather history database for the weather conditions in past years. The results will help you decide how hot, cold, wet, or windy it might be!

Date:

Astronomy

Dec. 19, 2013 Rise Set
Actual Time 6:58 AM GST 5:32 PM GST
Civil Twilight 6:33 AM GST 5:57 PM GST
Nautical Twilight 6:04 AM GST 6:26 PM GST
Astronomical Twilight 5:36 AM GST 6:54 PM GST
Moon 7:26 PM GST (12/19) 8:11 AM GST (12/19)
Length of Visible Light 11h 24m
Length of Day
10h 34m
Waning Gibbous, 97% of the Moon is Illuminated
Dec 19
Waning Gibbous
Dec 25
Last Quarter
Jan 1
New
Jan 8
First Quarter
Jan 16
Full

Hourly Weather History & Observations

Time (GST) Temp. Dew Point Humidity Pressure Visibility Wind Dir Wind Speed Gust Speed Precip Events Conditions
12:00 AM 73.4 °F 50.0 °F 44% 30.09 in - NE 3.5 mph - N/A   Clear
1:00 AM 74 °F 49 °F 30% 30.08 in 6 mi 2.3 mph - -  
1:00 AM 73.4 °F 48.2 °F 41% 30.06 in - Variable 2.3 mph - N/A   Clear
2:00 AM 71.6 °F 50.0 °F 46% 30.06 in - ENE 3.5 mph - N/A   Clear
3:00 AM 73.4 °F 48.2 °F 41% 30.06 in - NNE 4.6 mph - N/A   Clear
4:00 AM 72 °F 50 °F 34% 30.06 in 6 mi NE 6.9 mph - -  
4:00 AM 71.6 °F 50.0 °F 46% 30.04 in - NE 6.9 mph - N/A   Clear
5:00 AM 69.8 °F 50.0 °F 49% 30.04 in - NE 5.8 mph - N/A   Clear
6:00 AM 69.8 °F 50.0 °F 49% 30.04 in - NE 4.6 mph - N/A   Clear
7:00 AM 70 °F 50 °F 38% 30.08 in 6 mi NE 4.6 mph - -  
7:00 AM 69.8 °F 50.0 °F 49% 30.06 in - NE 4.6 mph - N/A   Clear
8:00 AM 71.6 °F 50.0 °F 46% 30.09 in - NE 5.8 mph - N/A   Clear
9:00 AM 71.6 °F 50.0 °F 46% 30.09 in - ENE 4.6 mph - N/A   Clear
10:00 AM 74 °F 50 °F 32% 30.12 in 6 mi NE 11.5 mph - -  
10:00 AM 73.4 °F 50.0 °F 44% 30.09 in - NE 11.5 mph - N/A   Clear
11:00 AM 77.0 °F 46.4 °F 34% 30.09 in - NE 9.2 mph - N/A   Clear
12:00 PM 78.8 °F 44.6 °F 30% 30.06 in - NE 8.1 mph - N/A   Clear
1:00 PM 80 °F 43 °F 17% 30.05 in 6 mi North 6.9 mph - -  
1:00 PM 80.6 °F 42.8 °F 26% 30.04 in - North 6.9 mph - N/A   Clear
2:00 PM 78.8 °F 51.8 °F 39% 30.01 in - North 9.2 mph - N/A   Clear
3:00 PM 78.8 °F 51.8 °F 39% 30.01 in - North 8.1 mph - N/A   Clear
4:00 PM 78 °F 51 °F 28% 30.01 in 6 mi North 10.4 mph - -  
4:00 PM 77.0 °F 51.8 °F 41% 30.01 in - North 10.4 mph - N/A   Clear
5:00 PM 77.0 °F 51.8 °F 41% 30.01 in - NNW 9.2 mph - N/A   Clear
6:00 PM 75.2 °F 53.6 °F 47% 30.01 in - North 6.9 mph - N/A   Clear
7:00 PM 75 °F 54 °F 37% 30.03 in 6 mi NNE 4.6 mph - -  
7:00 PM 75.2 °F 53.6 °F 47% 30.01 in - NNE 4.6 mph - N/A   Clear
8:00 PM 75.2 °F 53.6 °F 47% 30.04 in - Variable 3.5 mph - N/A   Clear
9:00 PM 75.2 °F 55.4 °F 50% 30.04 in - NNW 5.8 mph - N/A   Clear
10:00 PM 74 °F 56 °F 43% 30.07 in 6 mi NNW 3.5 mph - -  
10:00 PM 73.4 °F 55.4 °F 53% 30.06 in - NNW 3.5 mph - N/A   Clear
11:00 PM 73.4 °F 55.4 °F 53% 30.06 in - NNW 5.8 mph - N/A   Clear